KJ4AJP Weather Reports


time (UTC)temp
C
wind
direction
speed
KPH
gust
KPH
rain 1hr
cm
rain 24hr
cm
rain mn
cm
humidity
%
barometer
mb
20260903092309 23 48 0.0 0.0 0.00 0.00 0.00 93 1015.4
20260903091807 23 48 0.0 0.0 0.00 0.00 0.00 93 1015.8
20260903091301 23 48 0.0 0.0 0.00 0.00 0.00 93 1015.7
20260903090757 23 48 0.0 0.0 0.00 0.00 0.00 93 1015.7
20260903090256 23 48 0.0 0.0 0.00 0.00 0.00 92 1015.6
20260903085755 23 48 0.0 0.0 0.00 0.00 0.00 92 1015.7
20260903085250 23 48 0.0 0.0 0.00 0.00 0.00 92 1015.7
20260903084748 23 48 0.0 0.0 0.00 0.00 0.00 92 1015.6
20260903084243 23 48 0.0 0.0 0.00 0.00 0.00 91 1015.7
20260903083738 23 48 0.0 0.0 0.00 0.00 0.00 91 1015.5
20260903083233 24 48 0.0 0.0 0.00 0.00 0.00 91 1015.6
20260903082732 24 48 0.0 0.0 0.00 0.00 0.00 90 1015.5
20260903082228 24 48 0.0 0.0 0.00 0.00 0.00 90 1015.6
20260903081727 24 48 0.0 0.0 0.00 0.00 0.00 90 1015.7
20260903081223 24 48 0.0 0.0 0.00 0.00 0.00 90 1015.5
20260903080719 24 48 0.0 0.0 0.00 0.00 0.00 90 1015.3
20260903080217 24 48 0.0 0.0 0.00 0.00 0.00 90 1015.4
20260903075716 24 48 0.0 0.0 0.00 0.00 0.00 90 1015.3
20260903075211 24 48 0.0 0.0 0.00 0.00 0.00 89 1015.3
20260903074710 24 48 0.0 0.0 0.00 0.00 0.00 90 1015.1
20260903074206 24 48 0.0 0.0 0.00 0.00 0.00 89 1015.3
20260903073701 24 48 0.0 0.0 0.00 0.00 0.00 89 1015.4
20260903073156 24 48 0.0 0.0 0.00 0.00 0.00 89 1015.4
20260903072652 25 48 0.0 0.0 0.00 0.00 0.00 89 1015.2
20260903072148 25 48 0.0 0.0 0.00 0.00 0.00 89 1015.5
20260903071644 25 48 0.0 0.0 0.00 0.00 0.00 88 1015.4
20260903071140 25 48 0.0 0.0 0.00 0.00 0.00 88 1015.4
20260903070639 25 48 0.0 0.0 0.00 0.00 0.00 88 1015.5
20260903070135 25 48 0.0 0.0 0.00 0.00 0.00 87 1015.5
20260903065635 25 48 0.0 0.0 0.00 0.00 0.00 87 1015.5
20260903065130 25 48 0.0 0.0 0.00 0.00 0.00 87 1015.8
20260903064629 25 48 0.0 0.0 0.00 0.00 0.00 87 1015.6
20260903064125 25 48 0.0 0.0 0.00 0.00 0.00 87 1015.5
20260903063620 25 48 0.0 0.0 0.00 0.00 0.00 87 1015.5
20260903063115 25 48 0.0 0.0 0.00 0.00 0.00 86 1015.5
20260903062611 25 48 0.0 0.0 0.00 0.00 0.00 86 1015.6
20260903062106 25 48 0.0 0.0 0.00 0.00 0.00 86 1015.6
20260903061601 25 48 0.0 0.0 0.00 0.00 0.00 86 1015.5
20260903061101 25 48 0.0 0.0 0.00 0.00 0.00 86 1015.6
20260903060600 25 47 0.0 0.0 0.00 0.00 0.00 85 1015.5
20260903060055 25 47 0.0 0.0 0.00 0.00 0.00 85 1015.5
20260903055553 25 47 0.0 0.0 0.00 0.00 0.00 84 1015.5
20260903055052 26 45 0.0 1.6 0.00 0.00 0.00 83 1015.7
20260903054547 26 51 0.0 0.0 0.00 0.00 0.00 82 1015.6
20260903054043 26 50 0.0 0.0 0.00 0.00 0.00 82 1015.6
20260903053538 26 51 0.0 0.0 0.00 0.00 0.00 81 1015.7
20260903053034 26 51 0.0 0.0 0.00 0.00 0.00 81 1015.6
20260903052530 26 51 0.0 0.0 0.00 0.00 0.00 81 1015.6
20260903052026 26 53 0.0 0.0 0.00 0.00 0.00 81 1015.7
20260903051520 26 54 0.0 0.0 0.00 0.00 0.00 80 1015.6
20260903051016 26 54 0.0 0.0 0.00 0.00 0.00 80 1015.7
20260903050515 26 55 0.0 0.0 0.00 0.00 0.00 80 1015.7
20260903050010 26 54 0.0 0.0 0.00 0.00 0.00 80 1015.7
20260903045510 26 57 0.0 0.0 0.00 0.00 0.00 79 1015.7
20260903045007 26 56 0.0 0.0 0.00 0.00 0.00 79 1015.5
20260903044502 27 56 0.0 0.0 0.00 0.00 0.00 79 1015.5
20260903043958 27 56 0.0 0.0 0.00 0.00 0.00 78 1015.7
20260903043453 27 57 0.0 0.0 0.00 0.00 0.00 78 1015.7
20260903042951 27 57 0.0 0.0 0.00 0.00 0.00 78 1015.3
20260903042447 27 60 0.0 0.0 0.00 0.00 0.00 77 1015.5
20260903041943 27 52 0.0 0.0 0.00 0.00 0.00 77 1015.5
20260903041439 27 57 0.0 0.0 0.00 0.00 0.00 78 1015.4
20260903040935 27 64 0.0 0.0 0.00 0.00 0.00 77 1015.5
20260903040433 27 65 0.0 0.0 0.00 0.00 0.00 77 1015.6
20260903035930 27 64 0.0 0.0 0.00 0.00 0.00 77 1015.6
20260903035426 27 61 0.0 0.0 0.00 0.00 0.00 77 1015.6
20260903034925 27 60 0.0 0.0 0.00 0.00 0.00 77 1015.5
20260903034421 27 60 0.0 0.0 0.00 0.00 0.00 77 1015.6
20260903033916 27 62 0.0 0.0 0.00 0.00 0.00 76 1015.6
20260903033411 27 52 0.0 0.0 0.00 0.00 0.00 76 1015.7
20260903032906 27 61 0.0 0.0 0.00 0.00 0.00 77 1015.6
20260903032402 27 61 0.0 0.0 0.00 0.00 0.00 77 1015.6
20260903031902 27 63 0.0 0.0 0.00 0.00 0.00 76 1015.6
20260903031401 27 63 0.0 0.0 0.00 0.00 0.00 76 1015.7
20260903030856 27 63 0.0 0.0 0.00 0.00 0.00 76 1015.4
20260903030353 27 62 0.0 0.0 0.00 0.00 0.00 75 1015.6
20260903025848 28 63 0.0 0.0 0.00 0.00 0.00 74 1015.7
20260903025343 28 63 0.0 0.0 0.00 0.00 0.00 74 1015.6
20260903024838 27 56 0.0 0.0 0.00 0.00 0.00 74 1015.6
20260903024338 27 58 0.0 0.0 0.00 0.00 0.00 75 1015.5
20260903023833 28 64 0.0 0.0 0.00 0.00 0.00 74 1015.5
20260903023329 28 64 0.0 0.0 0.00 0.00 0.00 73 1015.4
20260903022818 28 64 0.0 0.0 0.00 0.00 0.00 73 1015.6
20260903022317 28 64 0.0 0.0 0.00 0.00 0.00 72 1015.6
20260903021810 28 64 0.0 0.0 0.00 0.00 0.00 72 1015.5
20260903021306 28 65 0.0 0.0 0.00 0.00 0.00 71 1015.5
20260903020806 28 70 0.0 0.0 0.00 0.00 0.00 71 1015.5
20260903020300 29 72 0.0 0.0 0.00 0.00 0.00 70 1015.3
20260903015756 29 66 0.0 0.0 0.00 0.00 0.00 70 1015.4
20260903015251 29 60 0.0 0.0 0.00 0.00 0.00 70 1015.3
20260903014747 29 74 1.6 1.6 0.00 0.00 0.00 69 1015.3
20260903014241 29 61 0.0 0.0 0.00 0.00 0.00 70 1015.2
20260903013736 29 60 0.0 0.0 0.00 0.00 0.00 70 1015.1
20260903013234 29 70 0.0 0.0 0.00 0.00 0.00 70 1015.0
20260903012733 29 65 0.0 0.0 0.00 0.00 0.00 69 1015.2
20260903012228 29 66 0.0 1.6 0.00 0.00 0.00 69 1015.2
20260903011728 29 61 0.0 0.0 0.00 0.00 0.00 69 1014.8
20260903011221 29 61 0.0 0.0 0.00 0.00 0.00 69 1014.9
20260903010717 29 59 0.0 0.0 0.00 0.00 0.00 68 1014.8
20260903010217 29 65 0.0 0.0 0.00 0.00 0.00 68 1014.8
20260903005716 29 65 0.0 0.0 0.00 0.00 0.00 68 1014.7
20260903005211 30 64 0.0 0.0 0.00 0.00 0.00 68 1014.8
20260903004707 30 58 0.0 0.0 0.00 0.00 0.00 67 1014.9
20260903004201 30 58 0.0 0.0 0.00 0.00 0.00 66 1014.7
20260903003657 30 58 0.0 0.0 0.00 0.00 0.00 67 1014.9
20260903003152 30 58 0.0 0.0 0.00 0.00 0.00 65 1014.8
20260903002642 30 58 0.0 0.0 0.00 0.00 0.00 65 1014.8
20260903002137 30 58 0.0 0.0 0.00 0.00 0.00 64 1014.8
20260903001631 30 58 0.0 0.0 0.00 0.00 0.00 63 1014.8
20260903001130 31 58 0.0 0.0 0.00 0.00 0.00 62 1015.0
20260903000626 31 58 0.0 0.0 0.00 0.00 0.00 60 1015.1
20260903000120 31 58 0.0 0.0 0.00 0.00 0.00 59 1015.0
20260902235619 32 57 0.0 0.0 0.00 0.00 0.00 58 1015.1
20260902235114 32 65 0.0 0.0 0.00 0.00 0.00 56 1014.9
20260902234608 32 73 0.0 1.6 0.00 0.00 0.00 55 1015.1
20260902234107 33 65 0.0 0.0 0.00 0.00 0.00 53 1015.0
20260902233603 33 76 1.6 3.2 0.00 0.00 0.00 52 1015.0
20260902233102 33 58 1.6 1.6 0.00 0.00 0.00 51 1015.0
20260902232556 34 64 0.0 0.0 0.00 0.00 0.00 53 1014.9
20260902232050 34 61 0.0 0.0 0.00 0.00 0.00 52 1015.0
20260902231544 35 54 1.6 3.2 0.00 0.00 0.00 49 1014.9
20260902231039 35 86 1.6 1.6 0.00 0.00 0.00 49 1015.1
20260902230538 35 60 0.0 0.0 0.00 0.00 0.00 49 1015.0
20260902230038 35 62 0.0 0.0 0.00 0.00 0.00 46 1015.3
20260902225533 36 0 3.2 3.2 0.00 0.00 0.00 48 1015.2
20260902225032 36 28 1.6 3.2 0.00 0.00 0.00 46 1014.9
20260902224531 36 40 1.6 1.6 0.00 0.00 0.00 45 1014.8
20260902224028 36 292 9.7 9.7 0.00 0.00 0.00 44 1015.0
20260902223524 36 69 0.0 0.0 0.00 0.00 0.00 45 1015.0
20260902223022 36 25 1.6 1.6 0.00 0.00 0.00 45 1015.0
20260902222521 36 65 0.0 1.6 0.00 0.00 0.00 47 1015.0
20260902222020 36 58 0.0 0.0 0.00 0.00 0.00 47 1014.8
20260902221515 35 54 0.0 0.0 0.00 0.00 0.00 48 1015.0
20260902221011 35 78 1.6 1.6 0.00 0.00 0.00 47 1015.1
20260902220511 36 57 0.0 0.0 0.00 0.00 0.00 47 1014.9
20260902220005 36 101 1.6 1.6 0.00 0.00 0.00 45 1015.1
20260902215501 36 61 0.0 0.0 0.00 0.00 0.00 46 1015.1
20260902214957 36 56 0.0 0.0 0.00 0.00 0.00 44 1014.9
20260902214456 36 84 3.2 3.2 0.00 0.00 0.00 45 1015.0
20260902213955 36 75 1.6 1.6 0.00 0.00 0.00 45 1015.2
20260902213452 36 29 1.6 1.6 0.00 0.00 0.00 44 1015.2
20260902212950 36 44 6.4 9.7 0.00 0.00 0.00 43 1015.4
20260902212447 36 56 0.0 0.0 0.00 0.00 0.00 49 1015.3
20260902211942 36 56 0.0 0.0 0.00 0.00 0.00 45 1015.2
20260902211438 37 48 1.6 1.6 0.00 0.00 0.00 43 1015.3
20260902210933 37 61 0.0 1.6 0.00 0.00 0.00 48 1015.4
20260902210428 37 40 1.6 1.6 0.00 0.00 0.00 41 1015.6
20260902205926 37 49 0.0 1.6 0.00 0.00 0.00 44 1015.4
20260902205416 37 73 3.2 4.8 0.00 0.00 0.00 44 1015.4
20260902204912 36 57 0.0 0.0 0.00 0.00 0.00 48 1015.5
20260902204411 36 195 0.0 1.6 0.00 0.00 0.00 45 1015.4
20260902203907 36 46 0.0 0.0 0.00 0.00 0.00 43 1015.5
20260902203402 37 59 1.6 3.2 0.00 0.00 0.00 44 1015.6
20260902202856 36 62 0.0 1.6 0.00 0.00 0.00 48 1015.7
20260902202352 35 56 0.0 0.0 0.00 0.00 0.00 48 1015.9
20260902201849 36 47 0.0 1.6 0.00 0.00 0.00 45 1015.8
20260902201348 37 63 3.2 4.8 0.00 0.00 0.00 43 1015.8
20260902200843 37 89 1.6 3.2 0.00 0.00 0.00 42 1015.9
20260902200339 37 57 0.0 0.0 0.00 0.00 0.00 44 1015.8
20260902195833 36 278 1.6 3.2 0.00 0.00 0.00 45 1016.0
20260902195333 36 211 1.6 3.2 0.00 0.00 0.00 43 1016.1
20260902194827 36 47 0.0 0.0 0.00 0.00 0.00 44 1016.1
20260902194322 37 128 3.2 3.2 0.00 0.00 0.00 44 1016.4
20260902193818 37 59 1.6 1.6 0.00 0.00 0.00 43 1016.5
20260902193314 37 64 1.6 1.6 0.00 0.00 0.00 44 1016.4
20260902192813 36 62 1.6 1.6 0.00 0.00 0.00 45 1016.5
20260902192311 36 56 0.0 0.0 0.00 0.00 0.00 49 1016.6
20260902191811 36 62 0.0 0.0 0.00 0.00 0.00 49 1016.6
20260902191306 36 58 3.2 3.2 0.00 0.00 0.00 46 1016.7
20260902190806 37 60 1.6 1.6 0.00 0.00 0.00 44 1016.7
20260902190305 37 131 4.8 4.8 0.00 0.00 0.00 43 1017.0
20260902185802 37 31 0.0 1.6 0.00 0.00 0.00 47 1017.0
20260902185258 36 82 1.6 3.2 0.00 0.00 0.00 45 1017.0
20260902184754 36 61 0.0 0.0 0.00 0.00 0.00 45 1017.0
20260902184249 36 39 0.0 0.0 0.00 0.00 0.00 45 1017.1
20260902183744 36 73 1.6 1.6 0.00 0.00 0.00 46 1017.0
20260902183240 35 67 0.0 0.0 0.00 0.00 0.00 45 1017.1
20260902182736 35 102 3.2 6.4 0.00 0.00 0.00 44 1017.1
20260902182232 36 57 0.0 0.0 0.00 0.00 0.00 46 1017.1
20260902181729 36 61 1.6 1.6 0.00 0.00 0.00 47 1017.0
20260902181228 35 96 1.6 1.6 0.00 0.00 0.00 45 1017.2
20260902180723 36 318 3.2 3.2 0.00 0.00 0.00 44 1017.4
20260902180219 37 25 1.6 1.6 0.00 0.00 0.00 42 1017.4
20260902175719 37 43 0.0 1.6 0.00 0.00 0.00 49 1017.3
20260902175215 36 43 1.6 1.6 0.00 0.00 0.00 45 1017.4
20260902174710 36 83 3.2 3.2 0.00 0.00 0.00 47 1017.7
20260902174206 36 93 3.2 3.2 0.00 0.00 0.00 43 1017.7
20260902173702 36 55 0.0 0.0 0.00 0.00 0.00 45 1017.6
20260902173156 37 68 0.0 1.6 0.00 0.00 0.00 42 1017.6
20260902172656 37 78 0.0 0.0 0.00 0.00 0.00 47 1017.6
20260902172155 37 39 3.2 3.2 0.00 0.00 0.00 46 1017.7
20260902171651 36 52 0.0 0.0 0.00 0.00 0.00 47 1017.9
20260902171147 36 35 1.6 1.6 0.00 0.00 0.00 47 1018.0
20260902170643 35 38 0.0 1.6 0.00 0.00 0.00 47 1017.9
20260902170138 36 22 3.2 3.2 0.00 0.00 0.00 44 1018.1
20260902165633 36 78 0.0 1.6 0.00 0.00 0.00 51 1018.3
20260902165132 35 42 1.6 3.2 0.00 0.00 0.00 50 1018.3
20260902164627 35 62 0.0 0.0 0.00 0.00 0.00 50 1018.2
20260902164126 35 115 1.6 1.6 0.00 0.00 0.00 47 1018.2
20260902163622 36 21 1.6 3.2 0.00 0.00 0.00 50 1018.2
20260902163120 36 63 0.0 0.0 0.00 0.00 0.00 49 1018.3
20260902162620 35 56 0.0 0.0 0.00 0.00 0.00 52 1018.3
20260902162115 35 69 0.0 1.6 0.00 0.00 0.00 52 1018.4
20260902161609 35 14 3.2 3.2 0.00 0.00 0.00 52 1018.6
20260902161106 35 19 1.6 3.2 0.00 0.00 0.00 50 1018.5
20260902160602 35 19 1.6 1.6 0.00 0.00 0.00 49 1018.6
20260902160057 35 31 0.0 1.6 0.00 0.00 0.00 52 1018.5
20260902155555 34 17 1.6 3.2 0.00 0.00 0.00 52 1018.5
20260902155054 34 95 1.6 1.6 0.00 0.00 0.00 52 1018.9
20260902154550 34 78 1.6 3.2 0.00 0.00 0.00 53 1018.6
20260902154050 34 48 0.0 0.0 0.00 0.00 0.00 53 1018.9
20260902153548 33 96 1.6 1.6 0.00 0.00 0.00 54 1018.8
20260902153044 33 109 1.6 1.6 0.00 0.00 0.00 55 1018.7
20260902152541 33 1 3.2 4.8 0.00 0.00 0.00 55 1018.8
20260902152036 33 229 1.6 3.2 0.00 0.00 0.00 55 1018.8
20260902151532 33 45 1.6 3.2 0.00 0.00 0.00 54 1018.7
20260902151030 34 181 3.2 3.2 0.00 0.00 0.00 53 1018.7
20260902150526 35 19 1.6 1.6 0.00 0.00 0.00 52 1018.6
20260902150021 33 63 0.0 0.0 0.00 0.00 0.00 55 1018.8
20260902145516 33 64 0.0 0.0 0.00 0.00 0.00 57 1018.9
20260902145010 32 14 1.6 3.2 0.00 0.00 0.00 56 1018.6
20260902144507 32 7 1.6 3.2 0.00 0.00 0.00 59 1018.6
20260902144002 32 321 3.2 3.2 0.00 0.00 0.00 58 1018.9
20260902143457 31 41 3.2 3.2 0.00 0.00 0.00 60 1018.7
20260902142952 32 323 3.2 4.8 0.00 0.00 0.00 58 1018.8
20260902142448 31 67 0.0 0.0 0.00 0.00 0.00 61 1018.7
20260902141943 31 88 0.0 1.6 0.00 0.00 0.00 62 1018.7
20260902141438 31 67 0.0 1.6 0.00 0.00 0.00 64 1018.8
20260902140937 30 67 0.0 1.6 0.00 0.00 0.00 63 1018.6
20260902140433 30 89 3.2 4.8 0.00 0.00 0.00 64 1018.8
20260902135932 30 31 3.2 3.2 0.00 0.00 0.00 64 1018.7
20260902135429 30 47 0.0 1.6 0.00 0.00 0.00 65 1018.8
20260902134927 30 48 0.0 1.6 0.00 0.00 0.00 67 1018.7
20260902134424 29 70 0.0 0.0 0.00 0.00 0.00 69 1018.7
20260902133919 29 349 0.0 1.6 0.00 0.00 0.00 67 1018.7
20260902133418 28 87 0.0 1.6 0.00 0.00 0.00 72 1018.9
20260902132913 28 80 1.6 1.6 0.00 0.00 0.00 72 1018.8
20260902132408 27 119 1.6 1.6 0.00 0.00 0.00 74 1018.8
20260902131903 27 58 0.0 0.0 0.00 0.00 0.00 76 1018.7
20260902131400 27 62 0.0 0.0 0.00 0.00 0.00 77 1018.8
20260902130859 28 54 0.0 0.0 0.00 0.00 0.00 74 1018.9
20260902130356 28 67 0.0 0.0 0.00 0.00 0.00 74 1018.7
20260902125850 27 66 0.0 0.0 0.00 0.00 0.00 77 1018.5
20260902125346 26 53 0.0 0.0 0.00 0.00 0.00 79 1018.6
20260902124842 26 60 0.0 0.0 0.00 0.00 0.00 82 1018.6
20260902124338 25 59 0.0 0.0 0.00 0.00 0.00 85 1018.5
20260902123833 25 60 0.0 0.0 0.00 0.00 0.00 86 1018.6
20260902123329 24 43 0.0 0.0 0.00 0.00 0.00 89 1018.5
20260902122827 23 57 0.0 0.0 0.00 0.00 0.00 93 1018.4
20260902122324 23 58 0.0 0.0 0.00 0.00 0.00 94 1018.5
20260902121823 22 58 0.0 0.0 0.00 0.00 0.00 95 1018.5
20260902121319 22 58 0.0 0.0 0.00 0.00 0.00 95 1018.2
20260902120814 22 58 0.0 0.0 0.00 0.00 0.00 95 1018.3
20260902120311 22 58 0.0 0.0 0.00 0.00 0.00 96 1018.1
20260902115810 22 58 0.0 0.0 0.00 0.00 0.00 96 1018.2
20260902115309 22 58 0.0 0.0 0.00 0.00 0.00 96 1018.1
20260902114803 22 58 0.0 0.0 0.00 0.00 0.00 96 1018.0
20260902114300 22 58 0.0 0.0 0.00 0.00 0.00 96 1018.0
20260902113754 22 58 0.0 0.0 0.00 0.00 0.00 96 1018.1
20260902113249 22 58 0.0 0.0 0.00 0.00 0.00 96 1018.1
20260902112748 22 58 0.0 0.0 0.00 0.00 0.00 96 1018.0
20260902112246 22 58 0.0 0.0 0.00 0.00 0.00 96 1018.0
20260902111746 22 58 0.0 0.0 0.00 0.00 0.00 96 1017.7
20260902111242 22 58 0.0 0.0 0.00 0.00 0.00 96 1017.8
20260902110738 22 58 0.0 0.0 0.00 0.00 0.00 96 1017.9
20260902110234 22 58 0.0 0.0 0.00 0.00 0.00 96 1017.8
20260902105733 22 58 0.0 0.0 0.00 0.00 0.00 96 1017.9
20260902105229 22 58 0.0 0.0 0.00 0.00 0.00 96 1017.7
20260902104724 22 58 0.0 0.0 0.00 0.00 0.00 96 1017.6
20260902104220 22 58 0.0 0.0 0.00 0.00 0.00 96 1017.6
20260902103719 22 58 0.0 0.0 0.00 0.00 0.00 96 1017.5
20260902103214 22 58 0.0 0.0 0.00 0.00 0.00 96 1017.4
20260902102709 22 58 0.0 0.0 0.00 0.00 0.00 95 1017.5
20260902102207 22 58 0.0 0.0 0.00 0.00 0.00 95 1017.4
20260902101707 22 58 0.0 0.0 0.00 0.00 0.00 95 1017.4
20260902101202 22 58 0.0 0.0 0.00 0.00 0.00 95 1017.3
20260902100701 22 58 0.0 0.0 0.00 0.00 0.00 95 1017.3
20260902100156 22 58 0.0 0.0 0.00 0.00 0.00 94 1017.4
20260902095655 22 58 0.0 0.0 0.00 0.00 0.00 94 1017.2
20260902095149 22 58 0.0 0.0 0.00 0.00 0.00 94 1017.2
20260902094645 22 58 0.0 0.0 0.00 0.00 0.00 93 1017.1
20260902094141 22 58 0.0 0.0 0.00 0.00 0.00 93 1017.2
20260902093640 22 58 0.0 0.0 0.00 0.00 0.00 92 1016.9
20260902093135 22 58 0.0 0.0 0.00 0.00 0.00 92 1017.1
20260902092630 23 58 0.0 0.0 0.00 0.00 0.00 92 1017.1